TimeCEST,TemperatureF,Dew PointF,Humidity,Sea Level PressureIn,VisibilityMPH,Wind Direction,Wind SpeedMPH,Gust SpeedMPH,PrecipitationIn,Events,Conditions,WindDirDegrees,DateUTC
12:00 AM,30.2,23.0,75,30.42,-9999.0,Variable,3.5,-,N/A,,Clear,0,2013-10-04 22:00:00
12:30 AM,30.2,24.8,80,30.42,-9999.0,Calm,Calm,-,N/A,,Clear,0,2013-10-04 22:30:00
1:00 AM,28.4,24.8,86,30.42,-9999.0,Calm,Calm,-,N/A,,Clear,0,2013-10-04 23:00:00
1:30 AM,30.2,24.8,80,30.42,-9999.0,Calm,Calm,-,N/A,,Clear,0,2013-10-04 23:30:00
2:00 AM,28.4,23.0,80,30.42,-9999.0,Variable,3.5,-,N/A,,Clear,0,2013-10-05 00:00:00
2:30 AM,26.6,23.0,86,30.39,-9999.0,Variable,1.2,-,N/A,,Clear,0,2013-10-05 00:30:00
3:00 AM,26.6,23.0,86,30.39,-9999.0,NNW,4.6,-,N/A,,Clear,340,2013-10-05 01:00:00
3:30 AM,28.4,24.8,86,30.39,-9999.0,NNW,4.6,-,N/A,,Clear,330,2013-10-05 01:30:00
4:00 AM,26.6,23.0,86,30.39,-9999.0,Variable,3.5,-,N/A,,Clear,0,2013-10-05 02:00:00
4:30 AM,26.6,23.0,86,30.36,-9999.0,Variable,2.3,-,N/A,,Clear,0,2013-10-05 02:30:00
5:00 AM,24.8,21.2,86,30.36,-9999.0,Calm,Calm,-,N/A,,Clear,0,2013-10-05 03:00:00
5:30 AM,24.8,21.2,86,30.36,-9999.0,Calm,Calm,-,N/A,,Clear,0,2013-10-05 03:30:00
6:00 AM,24.8,21.2,86,30.36,-9999.0,Variable,2.3,-,N/A,,Clear,0,2013-10-05 04:00:00
6:30 AM,24.8,21.2,86,30.33,-9999.0,Variable,1.2,-,N/A,,Clear,0,2013-10-05 04:30:00
7:00 AM,32.0,24.8,75,30.33,-9999.0,Variable,2.3,-,N/A,,Clear,0,2013-10-05 05:00:00
7:30 AM,35.6,26.6,70,30.33,-9999.0,Variable,3.5,-,N/A,,Clear,0,2013-10-05 05:30:00
8:00 AM,32.0,26.6,80,30.33,-9999.0,Variable,1.2,-,N/A,,Clear,0,2013-10-05 06:00:00
8:30 AM,39.2,30.2,70,30.33,-9999.0,Calm,Calm,-,N/A,,Clear,0,2013-10-05 06:30:00
9:00 AM,42.8,28.4,57,30.33,-9999.0,East,4.6,-,N/A,,Clear,100,2013-10-05 07:00:00
9:30 AM,44.6,26.6,49,30.33,-9999.0,ESE,8.1,-,N/A,,Clear,110,2013-10-05 07:30:00
10:00 AM,44.6,26.6,49,30.33,-9999.0,ESE,9.2,-,N/A,,Clear,120,2013-10-05 08:00:00
10:30 AM,48.2,26.6,43,30.33,-9999.0,ESE,9.2,-,N/A,,Clear,120,2013-10-05 08:30:00
11:00 AM,50.0,26.6,40,30.33,-9999.0,ESE,11.5,-,N/A,,Clear,120,2013-10-05 09:00:00
11:30 AM,51.8,26.6,38,30.33,-9999.0,ESE,10.4,-,N/A,,Clear,120,2013-10-05 09:30:00
12:00 PM,51.8,24.8,35,30.33,-9999.0,SE,12.7,-,N/A,,Clear,130,2013-10-05 10:00:00
12:30 PM,53.6,26.6,35,30.33,-9999.0,ESE,11.5,-,N/A,,Clear,110,2013-10-05 10:30:00
1:00 PM,53.6,26.6,35,30.30,-9999.0,ESE,11.5,-,N/A,,Clear,120,2013-10-05 11:00:00
1:30 PM,53.6,26.6,35,30.27,-9999.0,East,13.8,-,N/A,,Clear,100,2013-10-05 11:30:00
2:00 PM,55.4,28.4,36,30.27,-9999.0,ESE,12.7,-,N/A,,Clear,120,2013-10-05 12:00:00
2:30 PM,55.4,24.8,31,30.27,-9999.0,ESE,11.5,-,N/A,,Clear,110,2013-10-05 12:30:00
3:00 PM,57.2,24.8,29,30.27,-9999.0,ESE,11.5,-,N/A,,Clear,110,2013-10-05 13:00:00
3:30 PM,57.2,24.8,29,30.24,-9999.0,SE,9.2,-,N/A,,Clear,130,2013-10-05 13:30:00
4:00 PM,57.2,24.8,29,30.24,-9999.0,ESE,11.5,-,N/A,,Clear,120,2013-10-05 14:00:00
4:30 PM,57.2,24.8,29,30.24,-9999.0,ESE,10.4,-,N/A,,Clear,120,2013-10-05 14:30:00
5:00 PM,55.4,26.6,33,30.21,-9999.0,ESE,10.4,-,N/A,,Clear,110,2013-10-05 15:00:00
5:30 PM,55.4,28.4,36,30.24,-9999.0,ESE,9.2,-,N/A,,Clear,120,2013-10-05 15:30:00
6:00 PM,53.6,28.4,38,30.24,-9999.0,SE,8.1,-,N/A,,Clear,140,2013-10-05 16:00:00
6:30 PM,50.0,28.4,43,30.24,-9999.0,East,6.9,-,N/A,,Clear,100,2013-10-05 16:30:00
7:00 PM,44.6,28.4,53,30.24,-9999.0,East,4.6,-,N/A,,Clear,80,2013-10-05 17:00:00
7:30 PM,42.8,28.4,57,30.24,-9999.0,Variable,3.5,-,N/A,,Clear,0,2013-10-05 17:30:00
8:00 PM,41.0,30.2,65,30.24,-9999.0,Variable,2.3,-,N/A,,Clear,0,2013-10-05 18:00:00
8:30 PM,41.0,30.2,65,30.24,-9999.0,Variable,1.2,-,N/A,,Clear,0,2013-10-05 18:30:00
9:00 PM,41.0,30.2,65,30.24,-9999.0,Variable,1.2,-,N/A,,Clear,0,2013-10-05 19:00:00
9:30 PM,39.2,30.2,70,30.24,-9999.0,Calm,Calm,-,N/A,,Clear,0,2013-10-05 19:30:00
10:00 PM,35.6,28.4,75,30.24,-9999.0,Variable,2.3,-,N/A,,Clear,0,2013-10-05 20:00:00
10:30 PM,35.6,30.2,81,30.24,-9999.0,Variable,2.3,-,N/A,,Clear,0,2013-10-05 20:30:00
11:00 PM,37.4,30.2,75,30.24,-9999.0,Variable,1.2,-,N/A,,Clear,0,2013-10-05 21:00:00
11:30 PM,39.2,28.4,65,30.24,-9999.0,East,4.6,-,N/A,,Clear,80,2013-10-05 21:30:00